[[{"header":{"parameterUnit":"m.s-1","parameterCategory":1,"la1":30.2991,"la2":30.254,"lo1":-89.0895,"lo2":-89.0444,"dx":0.0017,"dy":0.0017,"nx":28,"ny":28,"refTime":"2023-01-13T09:00:00:Z","depth":0,"parameterNumber":2,"parameterNumberName":"U-component_of_WINDS"},"data":[0,0,0,0,0,0,0,0,0,0,0,0,0,0,0,0,0,0,0,0,0,0,0,0,0,0,0,0,0,0,0,0,0,0,0,0,0,0,0,0,0,0,0,0,0,0,0,0,0,0,0,0,0,0,0,0,0,0,0.6299,0.63,0,0.6327,0.6327,0.6328,0.636,0.6361,0.6361,0.6362,0.6388,0.6388,0.6389,0,0,0,0,0,0,0,0,0,0,0,0,0,0.6275,0.6275,0.6299,0.63,0.63,0.6327,0.6327,0.6328,0.636,0.6361,0.6361,0.6362,0.6388,0.6388,0.6389,0,0,0,0,0,0,0,0,0,0,0,0,0,0.6292,0.6275,0.6299,0.632,0.6322,0.6327,0.6327,0.6328,0.636,0.6361,0.6362,0.6362,0.6388,0.6388,0.6389,0.6376,0,0,0.639,0.639,0,0,0,0,0,0,0,0,0.6291,0.6293,0.6316,0.6318,0.6321,0.6341,0.6328,0.6344,0.636,0.6345,0.6362,0.6363,0.6372,0.6374,0.6377,0.6377,0.6378,0.639,0.639,0.639,0.639,0,0,0,0,0,0,0,0.629,0.6292,0.631,0.6317,0.6319,0.6327,0.6331,0.6331,0.6354,0.6347,0.6349,0.6352,0.6373,0.6377,0.6378,0.6378,0.639,0.639,0.639,0.6391,0.6371,0.637,0,0,0,0,0,0,0.6286,0.6291,0.6309,0.6311,0.6308,0.6327,0.6331,0.6334,0.6354,0.6358,0.6351,0.6354,0.6376,0.6377,0.6379,0.6366,0.639,0.6391,0.6391,0.6372,0.6371,0.637,0,0,0,0,0,0,0.6285,0.6287,0.6308,0.6302,0.6305,0.6327,0.633,0.6334,0.6337,0.6358,0.6362,0.6351,0.6376,0.6378,0.6377,0.6367,0.6391,0.6391,0.6373,0.6372,0.6371,0.6339,0,0,0,0,0,0,0.6284,0.6287,0.6282,0.6301,0.6305,0.6305,0.6329,0.6334,0.6338,0.6341,0.6358,0.6362,0.6377,0.6376,0.6377,0.6368,0.6391,0.6374,0.6372,0.6371,0.6341,0.6337,0.6333,0,0,0,0,0,0.6283,0.6271,0.6281,0.6283,0.63,0.6305,0.6307,0.6325,0.6337,0.6332,0.6346,0.6361,0.6368,0.6376,0.6377,0.6368,0.6374,0.6373,0.6371,0.6343,0.6338,0.6334,0,0,0,0,0,0,0.6248,0.6274,0.6285,0.6279,0.629,0.631,0.6305,0.6319,0.6326,0.6329,0.6351,0.6355,0.6351,0.6359,0.6367,0.6357,0.6374,0.6372,0.6352,0.6347,0.6343,0.6341,0.6392,0,0,0,0,0,0.624,0.6242,0.6265,0.6257,0.6262,0.6282,0.6285,0.6299,0.6311,0.6315,0.6328,0.6339,0.6344,0.6346,0.6351,0.6343,0.6348,0.6338,0.6334,0.6331,0.6329,0.6326,0.6322,0.6365,0.6365,0.6365,0,0,0.6222,0.6237,0.6237,0.625,0.626,0.6262,0.6286,0.6287,0.6288,0.6315,0.6314,0.6325,0.6338,0.6333,0.6332,0.634,0.6319,0.6329,0.6326,0.6326,0.6324,0.632,0.6317,0.6364,0.6364,0.6364,0,0,0.6192,0.6203,0.6198,0.6208,0.6223,0.6237,0.6236,0.6255,0.6264,0.6264,0.6284,0.6287,0.6294,0.6304,0.6309,0.6285,0.6299,0.6286,0.6266,0.6263,0.626,0.6257,0.6249,0.6245,0.6284,0.6284,0.6284,0,0.6167,0.6172,0.6193,0.6194,0.6199,0.6225,0.6221,0.6229,0.6245,0.6249,0.6258,0.627,0.628,0.6279,0.6273,0.6277,0.6277,0.6283,0.6259,0.6256,0.6254,0.6246,0.6243,0.6282,0.6283,0.6283,0.6283,0,0.6142,0.6145,0.6139,0.6155,0.6161,0.6158,0.618,0.6183,0.6197,0.621,0.6211,0.6225,0.6235,0.6236,0.6248,0.6236,0.6241,0.6255,0.6271,0.6248,0.6241,0.6238,0.628,0.6281,0.6281,0.6282,0,0,0.6087,0.6117,0.6115,0.6123,0.6143,0.6146,0.6145,0.6156,0.6158,0.6169,0.6169,0.6177,0.619,0.6196,0.6211,0.6209,0.6189,0.6222,0.6223,0.6216,0.6178,0.6167,0.6163,0.62,0.6199,0.6199,0.6177,0,0.606,0.6061,0.6082,0.6077,0.6081,0.6107,0.6107,0.6119,0.6132,0.6137,0.6152,0.6157,0.6174,0.6178,0.6177,0.6192,0.6182,0.6194,0.62,0.62,0.6196,0.616,0.6148,0.6126,0.6174,0.6174,0.6173,0,0.6027,0.6037,0.6033,0.6055,0.6058,0.6057,0.6069,0.6074,0.6089,0.6099,0.6107,0.6125,0.6127,0.6143,0.6147,0.6154,0.6159,0.6167,0.6166,0.6167,0.6185,0.6159,0.612,0.6116,0.6169,0.617,0.617,0,0.5988,0.6001,0.6001,0.6007,0.6032,0.6032,0.6042,0.6058,0.6064,0.6075,0.6079,0.6089,0.6095,0.6103,0.6123,0.6133,0.6124,0.6142,0.6133,0.6132,0.6128,0.6128,0.6089,0.6132,0.6132,0.6132,0.6132,0,0.5954,0.5951,0.5983,0.5983,0.5981,0.6005,0.6002,0.6015,0.603,0.6033,0.6056,0.6058,0.6085,0.6091,0.6107,0.6107,0.611,0.6118,0.6122,0.6115,0.6114,0.6118,0.612,0.6131,0.6131,0.6132,0.6132,0,0.5909,0.5931,0.5932,0.5957,0.5964,0.5961,0.5982,0.5983,0.5999,0.6003,0.6005,0.6029,0.6038,0.6059,0.6072,0.6083,0.6079,0.6087,0.6074,0.6077,0.6066,0.6066,0.6027,0.6023,0.6069,0.6068,0.6068,0,0.5886,0.5884,0.5909,0.5914,0.5924,0.593,0.5936,0.5961,0.5967,0.5986,0.5985,0.5995,0.6004,0.6016,0.6035,0.6046,0.6054,0.604,0.6056,0.605,0.6054,0.6053,0.6054,0.6035,0.6035,0.6034,0.6034,0,0.5842,0.5854,0.5862,0.5875,0.5883,0.5894,0.5906,0.5908,0.5936,0.5942,0.5951,0.5958,0.5973,0.5983,0.5998,0.6009,0.6026,0.6029,0.6027,0.602,0.6013,0.6017,0.6064,0.6029,0.603,0.603,0.603,0.6031,0.5807,0.5808,0.5826,0.5835,0.5848,0.586,0.5862,0.5879,0.5888,0.5902,0.5917,0.5924,0.5942,0.5963,0.5973,0.598,0.5989,0.5986,0.5986,0.5984,0.5982,0.6013,0.5983,0.5983,0.5983,0.5983,0.5983,0,0.5765,0.5779,0.5787,0.5805,0.5813,0.583,0.5845,0.585,0.5857,0.5872,0.5882,0.5893,0.5904,0.5925,0.5937,0.5939,0.5947,0.5941,0.5941,0.5944,0.5973,0.5973,0.5934,0.5934,0.5934,0.5934,0.5934,0.5934,0.5744,0.5746,0.576,0.5769,0.5783,0.5791,0.5799,0.581,0.5822,0.5834,0.5843,0.5858,0.5875,0.589,0.5901,0.5907,0.591,0.5902,0.591,0.5937,0.5941,0.5946,0.5946,0.5902,0.5902,0.588,0.588,0.588]},{"header":{"parameterUnit":"m.s-1","parameterCategory":1,"la1":30.2991,"la2":30.254,"lo1":-89.0895,"lo2":-89.0444,"dx":0.0017,"dy":0.0017,"nx":28,"ny":28,"refTime":"2023-01-13T09:00:00:Z","depth":0,"parameterNumber":3,"parameterNumberName":"V-component_of_WINDS"},"data":[0,0,0,0,0,0,0,0,0,0,0,0,0,0,0,0,0,0,0,0,0,0,0,0,0,0,0,0,0,0,0,0,0,0,0,0,0,0,0,0,0,0,0,0,0,0,0,0,0,0,0,0,0,0,0,0,0,0,-6.8391,-6.8393,0,-6.8536,-6.8538,-6.8539,-6.8446,-6.8441,-6.8437,-6.8433,-6.8576,-6.8583,-6.8591,0,0,0,0,0,0,0,0,0,0,0,0,0,-6.8027,-6.8034,-6.8391,-6.8393,-6.8395,-6.8536,-6.8538,-6.854,-6.8446,-6.8441,-6.8436,-6.8431,-6.8573,-6.8582,-6.8592,0,0,0,0,0,0,0,0,0,0,0,0,0,-6.818,-6.8036,-6.8391,-6.8365,-6.8364,-6.8536,-6.8538,-6.854,-6.8447,-6.8441,-6.8434,-6.8428,-6.857,-6.8581,-6.8593,-6.8796,0,0,-6.8629,-6.8634,0,0,0,0,0,0,0,0,-6.8171,-6.8193,-6.8367,-6.8367,-6.8367,-6.8466,-6.8462,-6.8626,-6.8449,-6.8416,-6.8433,-6.8425,-6.8544,-6.8558,-6.8599,-6.8802,-6.8808,-6.863,-6.8637,-6.8642,-6.8645,0,0,0,0,0,0,0,-6.816,-6.8186,-6.8448,-6.837,-6.8369,-6.8344,-6.8359,-6.8492,-6.8514,-6.8418,-6.8412,-6.843,-6.8543,-6.8588,-6.8602,-6.8811,-6.863,-6.864,-6.8647,-6.8652,-6.9186,-6.9192,0,0,0,0,0,0,-6.8153,-6.8178,-6.8444,-6.8453,-6.8251,-6.8356,-6.8372,-6.8441,-6.8513,-6.8518,-6.8436,-6.8426,-6.8571,-6.8588,-6.8606,-6.8847,-6.8642,-6.8653,-6.866,-6.9179,-6.9187,-6.9195,0,0,0,0,0,0,-6.8145,-6.8177,-6.8438,-6.8314,-6.8345,-6.8369,-6.8447,-6.8447,-6.8492,-6.8526,-6.8529,-6.8478,-6.8566,-6.859,-6.8749,-6.8851,-6.8658,-6.8669,-6.917,-6.9181,-6.9191,-6.9332,0,0,0,0,0,0,-6.8135,-6.8175,-6.8254,-6.8316,-6.8352,-6.8581,-6.8453,-6.8455,-6.8513,-6.8501,-6.8567,-6.8571,-6.8563,-6.8732,-6.8761,-6.8864,-6.8678,-6.9161,-6.9175,-6.9188,-6.9318,-6.9346,-6.937,0,0,0,0,0,-6.8123,-6.8287,-6.8259,-6.8291,-6.8451,-6.8587,-6.8607,-6.8596,-6.8522,-6.86,-6.8622,-6.8569,-6.8835,-6.8749,-6.8781,-6.8889,-6.9155,-6.9171,-6.9187,-6.9307,-6.9341,-6.9369,0,0,0,0,0,0,-6.8235,-6.8295,-6.8264,-6.8454,-6.8516,-6.8571,-6.867,-6.8632,-6.8716,-6.8701,-6.8681,-6.8697,-6.8864,-6.8892,-6.8795,-6.9088,-6.8983,-6.9006,-6.9064,-6.9096,-6.9121,-6.9111,-6.8688,0,0,0,0,0,-6.8282,-6.8389,-6.8435,-6.8598,-6.8631,-6.8645,-6.8704,-6.869,-6.8753,-6.8778,-6.8812,-6.8873,-6.897,-6.9035,-6.9126,-6.9322,-6.9334,-6.9411,-6.9437,-6.9458,-6.9478,-6.9582,-6.9617,-6.9248,-6.9247,-6.9247,0,0,-6.838,-6.8426,-6.8494,-6.8622,-6.8668,-6.8778,-6.8668,-6.8788,-6.8869,-6.8796,-6.8949,-6.8976,-6.9043,-6.9221,-6.9302,-6.925,-6.9583,-6.9479,-6.9495,-6.9504,-6.9603,-6.9638,-6.9669,-6.9258,-6.9257,-6.9255,0,0,-6.8614,-6.866,-6.8801,-6.885,-6.8923,-6.8931,-6.8965,-6.9026,-6.9041,-6.9195,-6.9142,-6.9236,-6.9404,-6.9454,-6.9501,-6.9754,-6.9708,-6.9784,-6.9919,-7.0021,-7.005,-7.0075,-7.0164,-7.0197,-6.9804,-6.9804,-6.9804,0,-6.8726,-6.8891,-6.8877,-6.9002,-6.9059,-6.9,-6.914,-6.9188,-6.9286,-6.9326,-6.9267,-6.9477,-6.9518,-6.9706,-6.9768,-6.9809,-6.9845,-6.9776,-7.0047,-7.0073,-7.0096,-7.0181,-7.0215,-6.9813,-6.9812,-6.9811,-6.981,0,-6.9024,-6.9139,-6.9243,-6.9342,-6.941,-6.9542,-6.9547,-6.9617,-6.9597,-6.9611,-6.9767,-6.9814,-6.9914,-6.9958,-6.9939,-7.0144,-7.0109,-7.005,-6.9944,-7.0141,-7.022,-7.0252,-6.9825,-6.9822,-6.982,-6.9818,0,0,-6.9333,-6.9422,-6.9461,-6.9504,-6.958,-6.9667,-6.9796,-6.9895,-6.9955,-7.0024,-7.013,-7.0274,-7.0219,-7.0273,-7.0258,-7.0348,-7.0544,-7.0277,-7.0278,-7.0324,-7.0771,-7.0815,-7.0853,-7.0514,-7.052,-7.0525,-7.0765,0,-6.9571,-6.9798,-6.9789,-7.0,-7.0105,-7.0049,-7.0161,-7.0218,-7.0235,-7.0324,-7.0341,-7.0443,-7.0363,-7.0395,-7.0481,-7.0502,-7.0633,-7.0484,-7.061,-7.0615,-7.0595,-7.0895,-7.0942,-7.1167,-7.0796,-7.0801,-7.0805,0,-6.9879,-6.9961,-7.0183,-7.0242,-7.0285,-7.0387,-7.0476,-7.0563,-7.0626,-7.0631,-7.0692,-7.0663,-7.079,-7.0682,-7.0856,-7.0756,-7.0806,-7.0824,-7.0832,-7.0843,-7.0722,-7.0913,-7.1238,-7.1272,-7.0854,-7.085,-7.0846,0,-7.0081,-7.0246,-7.04,-7.0439,-7.0512,-7.0584,-7.0618,-7.0674,-7.0734,-7.0812,-7.085,-7.0941,-7.099,-7.106,-7.1056,-7.0977,-7.1233,-7.1124,-7.1239,-7.1239,-7.1295,-7.1291,-7.1632,-7.1329,-7.1328,-7.1328,-7.1327,0,-7.0348,-7.0485,-7.0492,-7.0587,-7.0739,-7.0726,-7.0876,-7.0902,-7.0953,-7.1049,-7.1006,-7.1098,-7.1087,-7.1178,-7.1175,-7.1319,-7.1342,-7.1348,-7.1346,-7.1352,-7.1351,-7.1385,-7.1369,-7.1337,-7.1335,-7.1333,-7.1331,0,-7.0599,-7.061,-7.0773,-7.083,-7.0847,-7.0956,-7.1003,-7.1092,-7.1104,-7.1227,-7.1255,-7.1274,-7.1379,-7.1382,-7.1502,-7.15,-7.1676,-7.1656,-7.1655,-7.1651,-7.1766,-7.1755,-7.214,-7.2189,-7.1855,-7.1858,-7.1861,0,-7.0768,-7.0873,-7.0941,-7.1004,-7.1042,-7.1144,-7.1205,-7.1196,-7.1261,-7.134,-7.1419,-7.1521,-7.1601,-7.1772,-7.1795,-7.1886,-7.1867,-7.1996,-7.188,-7.1883,-7.1868,-7.1862,-7.1872,-7.2018,-7.2022,-7.2025,-7.2027,0,-7.1067,-7.1067,-7.1158,-7.1252,-7.1326,-7.1398,-7.1465,-7.1518,-7.1517,-7.1592,-7.17,-7.1763,-7.1886,-7.1987,-7.2075,-7.2106,-7.2067,-7.2064,-7.2095,-7.2102,-7.2097,-7.2101,-7.1716,-7.2055,-7.2052,-7.205,-7.2048,-7.2047,-7.1282,-7.1373,-7.1435,-7.1537,-7.1587,-7.165,-7.1736,-7.176,-7.185,-7.1951,-7.194,-7.206,-7.2118,-7.2233,-7.2272,-7.2364,-7.2319,-7.2365,-7.2376,-7.2387,-7.24,-7.2084,-7.238,-7.2379,-7.2378,-7.2378,-7.2377,0,-7.1578,-7.1616,-7.171,-7.1806,-7.1886,-7.1843,-7.1915,-7.1984,-7.2091,-7.215,-7.223,-7.2354,-7.2451,-7.2482,-7.2575,-7.2643,-7.2627,-7.2668,-7.2662,-7.267,-7.2435,-7.2398,-7.2679,-7.2679,-7.2679,-7.2679,-7.2679,-7.2679,-7.1742,-7.1892,-7.1899,-7.2073,-7.2108,-7.2227,-7.2271,-7.2329,-7.2376,-7.2516,-7.2598,-7.2618,-7.2665,-7.2761,-7.2848,-7.2854,-7.289,-7.2939,-7.2937,-7.2717,-7.2687,-7.2658,-7.2623,-7.2947,-7.2947,-7.3165,-7.3167,-7.3168]}]]